Location: Biltmore Gardens
(41.6070°N, 83.4666°W)
Time: 05:06:31
(UTC+00:00)

A-11 Canister half - Pass Details

Date: 23 April 2021
Orbit: 1526 x 1683 km, 47.3° (Epoch: 11 May)

Event Time Altitude Azimuth Distance (km) Brightness Sun altitude
Rises 02:46:46 0° 297° (WNW) 4,940 12.9 -23.8°
Reaches altitude 10° 02:50:04 10° 293° (WNW) 3,949 12.0 -24.2°
Maximum altitude 02:59:40 50° 222° (SW) 2,047 9.5 -25.4°
Enters shadow 03:03:27 35° 173° (S) 2,435 9.6 -25.9°
